Notices

What's New in latest Release from April 7th, 2021:

- Updated Glossary, including Speed of Maximum Gust, and Total Hourly Precipitation

- Updated national and regional climate services offices contacts and prices information

- Addition of station inventory lists for 1981-2010, 1971-2000, and 1961-1990 Normals.

If you haven't already, please take our survey and provide feedback about our website: https://eccc.sondage-survey.ca/f/LanguageSelection.aspx?s=442ca660-fcf1-47c0-95a9-59707d6fd709

Hourly Data Report for March 16, 2018

MIRAMICHI RCS
NEW BRUNSWICK

47°00'34.000" N
65°27'54.000" W
33.00 m
8100989
71744
ACQ

Download Data

Hourly Data (March 2018)
Hourly Data Report for March 16, 2018
TIME
LST
Temp Definition
°C
Dew Point Definition
°C
Rel Hum Definition
%
Precip. Amount Definition
mm

Wind Dir Definition
10's deg

Wind Spd Definition
km/h
Visibility Definition
km
Stn Press Definition
kPa
Hmdx Definition


Wind Chill Definition


Weather Definition


00:00 -1.9 -3.7 87 0.0 24 15   98.00   -7 LegendNANA
01:00 -1.9 -3.7 88 0.2 25 13   98.00   -6 LegendNANA
02:00 -1.1 -3.6 83 0.0 25 19   98.02   -6 LegendNANA
03:00 -1.2 -3.6 84 0.0 24 18   98.03   -6 LegendNANA
04:00 -1.0 -3.5 84 0.0 25 16   98.05   -6 LegendNANA
05:00 -1.7 -4.0 84 0.0 25 14   98.07   -6 LegendNANA
06:00 -1.5 -4.0 83 0.0 25 12   98.09   -6 LegendNANA
07:00 -1.3 -4.3 80 0.0 24 15   98.13   -6 LegendNANA
08:00 -0.8 -4.5 76 0.0 26 20   98.17   -6 LegendNANA
09:00 -0.2 -5.2 69 0.0 28 23   98.23   -6 LegendNANA
10:00 0.4 -6.4 60 0.0 27 25   98.28     LegendNANA
11:00 0.7 -7.0 56 0.0 27 27   98.27     LegendNANA
12:00 0.9 -7.1 55 0.0 27 27   98.24     LegendNANA
13:00 0.4 -7.5 55 0.0 26 29   98.26     LegendNANA
14:00 0.4 -7.4 56 0.0 26 27   98.28     LegendNANA
15:00 -0.3 -8.0 56 0.0 27 26   98.31   -6 LegendNANA
16:00 -0.9 -8.4 57 0.0 28 27   98.36   -7 LegendNANA
17:00 -1.2 -8.0 60 0.0 29 19   98.40   -7 LegendNANA
18:00 -2.3 -9.4 58 0.0 28 26   98.48   -9 LegendNANA
19:00 -3.1 -9.8 60 0.0 28 26   98.57   -10 LegendNANA
20:00 -4.0 -10.2 62 0.0 28 22   98.64   -11 LegendNANA
21:00 -5.0 -11.5 61 0.0 28 19   98.70   -11 LegendNANA
22:00 -6.0 -11.9 63 0.0 28 23   98.73   -13 LegendNANA
23:00 -6.7 -12.1 65 0.0 27 14   98.76   -12 LegendNANA

Notes on Data Quality.

Legend

  • E = Estimated
  • M = Missing
  • NA = Not Available*
  • [empty] = Indicates an unobserved value
Date modified: